Location: Aix-en-Ergny
(50.5839°N, 1.9996°E)
Time: 17:23:13
(UTC+00:00)

Meteor 1-24 Rocket - Pass Details

Date: 23 October 2019
Orbit: 790 x 927 km, 81.3° (Epoch: 14 November)

Event Time Altitude Azimuth Distance (km) Brightness Sun altitude
Rises 05:01:40 0° 185° (S) 3,461 6.8 -14.2°
Reaches altitude 10° 05:04:03 10° 184° (S) 2,546 6.2 -13.8°
Maximum altitude 05:09:52 78° 100° (E) 934 4.0 -12.9°
Drops below altitude 10° 05:15:54 10° 15° (NNE) 2,631 6.4 -12.0°
Sets 05:18:25 0° 14° (NNE) 3,585 7.1 -11.6°
